Location: Unspecified
(0.0000°N, 0.0000°E)
Time: 14:18:06
(UTC+00:00)

Altair - Pass Details

Date: 05 November 2021
Orbit: 1502 x 1682 km, 47.2° (Epoch: 26 November)

Event Time Altitude Azimuth Distance (km) Brightness Sun altitude
Rises 21:02:16 0° 235° (SW) 4,713 10.7 -47.1°
Reaches altitude 10° 21:05:33 10° 241° (WSW) 3,706 10.0 -47.9°
Enters shadow 21:11:07 34° 269° (W) 2,295 8.6 -49.1°
Maximum altitude 21:14:13 44° 310° (NW) 1,994 - -49.8°
Drops below altitude 10° 21:22:45 10° 19° (NNE) 3,641 - -51.8°
Sets 21:25:59 0° 26° (NNE) 4,623 - -52.5°
